Regional Weather Roundup
Issued by NWS State College, PA

Home | Current Version | Previous Version | Text Only | Print | Product List | Glossary On
Versions: 1 2 3 4 5 6 7 8 9 10 11 12 13 14 15 16 17 18 19 20 21 22 23 24 25 26 27 28 29 30 31 32 33 34 35 36 37 38 39 40 41 42 43 44 45 46 47 48 49 50
000
ASUS41 KCTP 262003
RWRCTP

REGIONAL WEATHER ROUNDUP
NATIONAL WEATHER SERVICE STATE COLLEGE PA
300 PM EST FRI DEC 26 2014

Note: "fair" indicates few or no clouds below 12,000 feet with no
significant weather and/or obstructions to visibility.

* = STATION THAT DOES NOT REPORT PRECIPITATION /E.G. RAIN...SNOW...ETC/
    THUNDER OR FOG.

PAZ002>004-007>009-013>016-020>023-029>032-262100-
WESTERN PENNSYLVANIA

CITY           SKY/WX    TMP DP  RH WIND       PRES   REMARKS
ERIE           SUNNY     49  30  48 S16       30.11F
MEADVILLE      SUNNY     47  31  53 S9        30.12F
FRANKLIN*      SUNNY     46  30  53 SW8       30.16S
NEW CASTLE       N/A     49  33  54 S8        30.17F
BEAVER COUNTY  SUNNY     48  32  53 SW10      30.16F
BUTLER*        SUNNY     46  32  57 S9        30.18S
PITTSBURGH INT MOSUNNY   49  31  49 S12       30.17S
PITTSBURGH     SUNNY     49  28  44 SW13      30.17S
INDIANA*       SUNNY     48  32  53 SW12      30.21S
LATROBE        MOSUNNY   48  32  53 SW12      30.20F
WASHINGTON CO* NOT AVBL
$$

PAZ004>006-010>012-017>019-024>028-033>037-041-042-045-046-049>053-262100-
CENTRAL PENNSYLVANIA

CITY           SKY/WX    TMP DP  RH WIND       PRES   REMARKS
BRADFORD       SUNNY     43  27  53 SW8       30.11F
DUBOIS         SUNNY     45  30  55 SW13      30.14F
CLEARFIELD     SUNNY     47  27  45 SW8G16    30.16S
JOHNSTOWN      SUNNY     47  24  40 W13       30.15S
ALTOONA        SUNNY     47  32  56 S8        30.17F
STATE COLLEGE  SUNNY     46  34  61 S6        30.16F
WILLIAMSPORT   SUNNY     48  27  44 CALM      30.19S
SELINSGROVE    SUNNY     47  31  53 S3        30.20F
FT INDIANTOWN  SUNNY     49  30  48 W8        30.20F
CAPITAL CITY   SUNNY     50  30  46 W5        30.21F
HARRISBURG     MOSUNNY   49  30  48 CALM      30.21F
YORK           SUNNY     50  30  46 W5        30.21F
$$

PAZ038>040-043-044-047-048-054-055-060>062-067>071-262100-
EASTERN PENNSYLVANIA

CITY           SKY/WX    TMP DP  RH WIND       PRES   REMARKS
SCRANTON       SUNNY     45  28  51 SW9       30.17S
MOUNT POCONO   SUNNY     43  25  49 W7        30.14S
ALLENTOWN      SUNNY     48  28  46 W5        30.20R
QUAKERTOWN*    NOT AVBL
READING        SUNNY     48  30  49 VRB6      30.20F
LANCASTER      SUNNY     47  29  49 W8        30.21F
COATESVILLE    CLEAR     46  32  57 W7        30.22S
POTTSTOWN      SUNNY     47  29  49 SW5       30.22F
BLUE BELL      SUNNY     50  32  50 CALM      30.21F
DOYLESTOWN     SUNNY     47  30  51 VRB5      30.20S
WILLOW GROVE   NOT AVBL
NORTH PHILA    SUNNY     50  28  42 SW8       30.23F
PHILADELPHIA   MOSUNNY   50  30  46 SW12      30.23F
$$


USA.gov is the U.S. government's official web portal to all federal, state and local government web resources and services.